Date String (YYYY-MM-DD hh:mm:ss) UTC,Instrument flags,absolute air pressure of the measurement (hPa),sample flow rate (lpm),inlet stack bypass flow (lpm),air temperature of the measurement (°C),ambient temperature measured by the external sensor (°C),aerosol sample conditioner tube jacket temperature (°C),OPC LED temperature (°C),internal box temperature (°C),relative humidity of the measurement (%),span deviation,mass concentration of particles derived from Lorenz-Mie calculation of OPC scattering (μg/m³),mass concentration of particles derived from Lorenz-Mie calculation of OPC scattering (μg/m³),mass concentration of particles derived from Lorenz-Mie calculation of OPC scattering (μg/m³)
DateTimeUTC,F1_M11,P_M11,Q1_M11,Q2_M11,T1_M11,T2_M11,T3_M11,T4_M11,T5_M11,U1_M11,ZSPAN_M11,X0_M11,X2_M11,X1_M11
2024-06-07 09:00:00,SystemResetWarning,0828.1,5.00,000.00,029.8,028.2,000.0,038.5,031.3,019.6,0000.0,0016.46,0003.95,0002.32
2024-06-07 09:01:00,SystemResetWarning,0828.1,5.01,000.00,029.9,028.4,000.0,038.4,031.4,019.7,0000.0,0017.17,0003.90,0002.29
2024-06-07 09:02:00,SystemResetWarning,0828.1,5.00,000.00,029.9,028.6,000.0,038.4,031.5,019.6,0000.0,0016.98,0003.85,0002.27
2024-06-07 09:03:00,SystemResetWarning,0828.1,5.00,000.00,029.9,028.8,000.0,038.4,031.5,019.6,0000.0,0015.77,0003.79,0002.25
2024-06-07 09:04:00,SystemResetWarning,0828.0,4.99,000.00,029.9,029.0,000.0,038.4,031.6,019.6,0000.0,0014.90,0003.83,0002.26
2024-06-07 09:05:00,SystemResetWarning,0828.0,5.00,000.00,030.0,029.1,000.0,038.4,031.7,019.5,0000.0,0015.16,0003.88,0002.27
2024-06-07 09:06:00,SystemResetWarning,0827.9,5.00,000.00,030.0,029.2,000.0,038.4,031.8,019.5,0000.0,0014.93,0003.89,0002.28
2024-06-07 09:07:00,SystemResetWarning,0827.9,5.00,000.00,030.1,029.3,000.0,038.4,031.8,019.5,0000.0,0014.33,0003.92,0002.30
2024-06-07 09:08:00,SystemResetWarning,0827.8,5.00,000.00,030.1,029.4,000.0,038.4,031.8,019.4,0000.0,0013.99,0003.92,0002.29
2024-06-07 09:09:00,SystemResetWarning,0827.8,5.01,000.00,030.1,029.4,000.0,038.4,031.9,019.4,0000.0,0014.21,0003.96,0002.30
2024-06-07 09:10:00,SystemResetWarning,0827.9,5.00,000.00,030.2,029.5,000.0,038.4,031.9,019.4,0000.0,0014.18,0003.99,0002.31
2024-06-07 09:11:00,SystemResetWarning,0827.9,5.01,000.00,030.2,029.6,000.0,038.4,031.9,019.4,0000.0,0014.00,0004.01,0002.33
2024-06-07 09:12:00,SystemResetWarning,0827.8,5.00,000.00,030.2,029.6,000.0,038.4,032.0,019.3,0000.0,0013.75,0004.04,0002.35
2024-06-07 09:13:00,SystemResetWarning,0827.8,4.99,000.00,030.3,029.7,000.0,038.5,032.0,019.3,0000.0,0013.00,0004.02,0002.35
2024-06-07 09:14:00,SystemResetWarning,0827.8,4.99,000.00,030.3,029.7,000.0,038.5,032.0,019.2,0000.0,0013.01,0004.02,0002.37
2024-06-07 09:15:00,SystemResetWarning,0827.8,5.00,000.00,030.3,029.7,000.0,038.5,032.1,019.1,0000.0,0012.90,0004.01,0002.40
2024-06-07 09:16:00,SystemResetWarning,0827.8,5.00,000.00,030.4,029.8,000.0,038.5,032.1,019.1,0000.0,0012.85,0004.00,0002.40
2024-06-07 09:17:00,SystemResetWarning,0827.8,5.00,000.00,030.4,029.8,000.0,038.5,032.1,019.0,0000.0,0012.56,0004.02,0002.41
2024-06-07 09:18:00,SystemResetWarning,0827.8,5.00,000.00,030.4,029.8,000.0,038.6,032.1,019.0,0000.0,0013.02,0004.00,0002.41
2024-06-07 09:19:00,SystemResetWarning,0827.8,5.01,000.00,030.4,029.9,000.0,038.6,032.1,018.9,0000.0,0013.24,0003.97,0002.42
2024-06-07 09:20:00,SystemResetWarning,0827.7,5.00,000.00,030.5,029.9,000.0,038.6,032.1,018.9,0000.0,0014.51,0003.90,0002.41
2024-06-07 09:21:00,SystemResetWarning,0827.7,4.99,000.00,030.5,029.9,000.0,038.6,032.1,018.9,0000.0,0013.97,0003.82,0002.41
2024-06-07 09:22:00,SystemResetWarning,0827.7,5.00,000.00,030.5,029.9,000.0,038.6,032.2,018.8,0000.0,0013.75,0003.79,0002.38
2024-06-07 09:23:00,SystemResetWarning,0827.8,4.99,000.00,030.5,029.9,000.0,038.7,032.2,018.8,0000.0,0013.60,0003.78,0002.36
2024-06-07 09:24:00,SystemResetWarning,0827.8,5.00,000.00,030.6,030.0,000.0,038.7,032.2,019.1,0000.0,0014.43,0003.85,0002.37
2024-06-07 09:25:00,SystemResetWarning,0827.8,5.00,000.00,030.6,030.0,000.0,038.7,032.3,019.1,0000.0,0015.31,0003.90,0002.39
2024-06-07 09:26:00,SystemResetWarning,0827.8,5.01,000.00,030.6,030.0,000.0,038.7,032.3,018.8,0000.0,0015.84,0003.88,0002.39
2024-06-07 09:27:00,SystemResetWarning,0827.7,5.01,000.00,030.6,030.0,000.0,038.8,032.3,018.7,0000.0,0016.38,0003.86,0002.39
2024-06-07 09:28:00,SystemResetWarning,0827.8,5.00,000.00,030.7,030.0,000.0,038.8,032.3,018.8,0000.0,0017.27,0003.82,0002.36
2024-06-07 09:29:00,SystemResetWarning,0827.7,4.99,000.00,030.7,030.1,000.0,038.8,032.3,018.6,0000.0,0017.58,0003.80,0002.35
2024-06-07 09:30:00,SystemResetWarning,0827.7,5.00,000.00,030.7,030.1,000.0,038.8,032.3,018.7,0000.0,0017.85,0003.79,0002.36
2024-06-07 09:31:00,SystemResetWarning,0827.7,5.01,000.00,030.7,030.1,000.0,038.9,032.3,018.8,0000.0,0017.13,0003.81,0002.37
2024-06-07 09:32:00,SystemResetWarning,0827.7,5.01,000.00,030.7,030.1,000.0,038.9,032.4,018.9,0000.0,0017.62,0003.85,0002.40
2024-06-07 09:33:00,SystemResetWarning,0827.7,5.00,000.00,030.7,030.1,000.0,038.9,032.3,018.9,0000.0,0018.77,0003.88,0002.42
2024-06-07 09:34:00,SystemResetWarning,0827.7,4.99,000.00,030.8,030.1,000.0,038.9,032.4,018.9,0000.0,0020.69,0003.93,0002.44
2024-06-07 09:35:00,SystemResetWarning,0827.7,4.99,000.00,030.8,030.2,000.0,039.0,032.4,018.9,0000.0,0020.16,0003.92,0002.46
2024-06-07 09:36:00,SystemResetWarning,0827.7,5.01,000.00,030.8,030.2,000.0,039.0,032.4,018.9,0000.0,0020.27,0003.91,0002.46
2024-06-07 09:37:00,SystemResetWarning,0827.7,5.01,000.00,030.8,030.2,000.0,039.0,032.4,018.9,0000.0,0020.19,0003.92,0002.47
2024-06-07 09:38:00,SystemResetWarning,0827.7,5.00,000.00,030.8,030.2,000.0,039.0,032.5,019.0,0000.0,0019.41,0003.95,0002.50
2024-06-07 09:39:00,SystemResetWarning,0827.7,4.99,000.00,030.8,030.2,000.0,039.0,032.5,019.2,0000.0,0018.80,0004.04,0002.55
2024-06-07 09:40:00,SystemResetWarning,0827.7,5.00,000.00,030.9,030.3,000.0,039.1,032.5,019.2,0000.0,0018.15,0004.08,0002.61
2024-06-07 09:41:00,SystemResetWarning,0827.7,5.00,000.00,030.9,030.3,000.0,039.1,032.5,019.2,0000.0,0018.33,0004.12,0002.65
2024-06-07 09:42:00,SystemResetWarning,0827.7,5.00,000.00,030.9,030.3,000.0,039.1,032.5,019.2,0000.0,0017.75,0004.14,0002.69
2024-06-07 09:43:00,SystemResetWarning,0827.7,5.01,000.00,030.9,030.3,000.0,039.1,032.6,019.2,0000.0,0017.37,0004.17,0002.72
2024-06-07 09:44:00,SystemResetWarning,0827.7,5.01,000.00,030.9,030.3,000.0,039.2,032.6,019.2,0000.0,0016.98,0004.20,0002.76
2024-06-07 09:45:00,SystemResetWarning,0827.7,4.99,000.00,031.0,030.3,000.0,039.2,032.6,019.3,0000.0,0015.11,0004.25,0002.83
2024-06-07 09:46:00,SystemResetWarning,0827.7,4.99,000.00,031.0,030.3,000.0,039.2,032.6,019.3,0000.0,0014.76,0004.32,0002.90
2024-06-07 09:47:00,SystemResetWarning,0827.7,5.00,000.00,031.0,030.4,000.0,039.2,032.7,019.1,0000.0,0014.19,0004.36,0002.96
2024-06-07 09:48:00,SystemResetWarning,0827.7,5.01,000.00,031.0,030.4,000.0,039.2,032.7,019.1,0000.0,0014.10,0004.44,0003.02
2024-06-07 09:49:00,SystemResetWarning,0827.7,5.00,000.00,031.0,030.4,000.0,039.3,032.7,019.1,0000.0,0014.13,0004.52,0003.05
2024-06-07 09:50:00,SystemResetWarning,0827.7,5.00,000.00,031.0,030.4,000.0,039.3,032.7,019.1,0000.0,0014.41,0004.54,0003.07
2024-06-07 09:51:00,SystemResetWarning,0827.7,5.00,000.00,031.1,030.4,000.0,039.3,032.7,019.0,0000.0,0015.14,0004.57,0003.10
2024-06-07 09:52:00,SystemResetWarning,0827.7,4.99,000.00,031.1,030.4,000.0,039.3,032.7,018.9,0000.0,0015.13,0004.62,0003.11
2024-06-07 09:53:00,SystemResetWarning,0827.7,4.99,000.00,031.1,030.5,000.0,039.3,032.8,018.9,0000.0,0014.64,0004.65,0003.11
2024-06-07 09:54:00,SystemResetWarning,0827.7,5.00,000.00,031.1,030.5,000.0,039.4,032.8,018.9,0000.0,0014.89,0004.64,0003.12
2024-06-07 09:55:00,SystemResetWarning,0827.7,5.00,000.00,031.1,030.5,000.0,039.4,032.8,018.8,0000.0,0015.53,0004.61,0003.12
2024-06-07 09:56:00,SystemResetWarning,0827.7,5.01,000.00,031.1,030.5,000.0,039.4,032.8,018.9,0000.0,0016.94,0004.59,0003.12
2024-06-07 09:57:00,SystemResetWarning,0827.6,5.00,000.00,031.0,028.9,000.0,039.4,031.9,019.0,0000.0,0017.65,0004.54,0003.10
2024-06-07 09:58:00,SystemResetWarning,0827.4,5.01,000.00,030.5,026.7,000.0,039.4,030.9,019.4,0000.0,0018.08,0004.57,0003.09
2024-06-07 09:59:00,SystemResetWarning,0827.6,5.01,000.00,030.2,026.6,000.0,039.3,030.7,019.8,0000.0,0018.04,0004.52,0003.09
